星链-36142(STARLINK-36142)

导读

STARLINK-36142是美国SpaceX公司星链(Starlink)星座的一颗低地球轨道卫星,于2025年12月8日发射入轨。作为星链全球覆盖阶段部署的卫星,它属于经过技术迭代的先进型号,很可能支持手机直连功能,配备激光星间链路,依托相控阵天线等技术,为全球偏远地区提供低延迟、高速宽带互联网接入服务,助力星链实现全球无缝通信覆盖的目标。

Basic Information
目录编号:
66981
目录名称:
STARLINK-36142
国际标识:
2025-288Y
轨道中心:
EARTH
卫星名称:
星链-36142
卫星全名:
星链-36142(STARLINK-36142)
卫星状态:
在轨 (已飞行187 天)
发射日期:
2025-12-08 UTC
国别 :
美国 (US)
星等 :
--
Orbit Information
数据来源 国际轨道数据 AOE轨道数据
星历时间 2026-06-13T03:29:09+0800
11小时前
查看轨道信息
2026-06-11T06:00:00+0800
2天前
查看轨道信息
半长轴 6861.129km 6861.15km
偏心率 0.0002658 0.000099
轨道倾角 42.988° 42.995°
近地点辐角 279.494° 218.014°
升交点赤经 206.374° 217.077°
平近点角 80.561° 147.352°
近地点 481.168km 482.333km
远地点 484.816km 483.693km
周期 94.266分钟 94.266分钟
每日圈数 15.275994 15.275922
Detailed Information
固有亮度:
5
最大亮度:
2.5
卫星平台:
Starlink V1.0
覆盖范围:
全球
运营商:
太空探索技术公司
运营商所在国:
美国
制造商(研发单位):
太空探索技术公司
制造商所在国:
美国
使用方式:
暂无
Satellite Introduction
Starlink 计划是 SpaceX 推出的全球卫星互联网项目,通过发射低轨道卫星,为全球尤其是偏远地区提供高速、低延迟的互联网服务。自 2019 年起,Starlink 已部署数千颗卫星,旨在缩小全球数字鸿沟,推动互联网普及。该项目还为军事、航空等行业提供通信支持,带来广泛经济效益。
2D Orbit Map
3D Orbit Map
Orbit Altitude Analysis Chart
Orbit Inclination Analysis Chart
Orbit Comprehensive Analysis Chart
View Comprehensive Chart